Regional Weather Roundup
Issued by NWS Portland, ME

Current Version |  Previous Version |  Text Only |  Print | Product List |  Glossary On
Versions: 1 2 3 4 5 6 7 8 9 10 11 12 13 14 15 16 17 18 19 20 21 22 23 24 25 26 27 28 29 30 31 32 33 34 35 36 37 38 39 40 41 42 43 44 45 46 47 48 49 50
495
ASUS41 KGYX 150310
RWRGYX
WEATHER ROUNDUP FOR MAINE AND NEW HAMPSHIRE
NATIONAL WEATHER SERVICE GRAY ME
1100 PM EDT FRI JUN 14 2024

* THESE REPORTS ARE NOT UNDER NWS QUALITY CONTROL AND/OR DO NOT
 REPORT WEATHER SUCH AS PRECIPITATION AND FOG.

MEZ002-005-006-010-012-015-018-020-021-024-026-027-029-150400-
MAINE

CITY           SKY/WX    TMP DP  RH WIND       PRES   REMARKS
PORTLAND       CLOUDY    65  63  93 NW6       29.83R
SANFORD*       CLOUDY    66  64  93 W3        29.83F
BAR HARBOR     CLOUDY    61  58  90 S5        29.83S
WISCASSET      CLOUDY    66  63  90 CALM      29.85R
ROCKLAND*      CLOUDY    64  61  90 W6        29.84R
FRYEBURG*      LGT RAIN  64  63  96 CALM      29.87R
LEWISTONAUBURN CLOUDY   N/A N/A N/A CALM      29.84F
AUGUSTA        LGT RAIN  67  64  90 CALM      29.85S
WATERVILLE*    LGT RAIN  67  67 100 W6        29.83R
BANGOR         CLOUDY    66  64  93 S3        29.83S
GREENVILLE       N/A     63  55  75 NW10      29.87R
MILLINOCKET    CLOUDY    63  57  81 CALM      29.85R
HOULTON        MOCLDY    64  55  72 N6        29.82R
PRESQUE ISLE   CLOUDY    62  57  83 N8        29.84R
FRENCHVILLE    PTCLDY    58  45  62 NW10G23   29.85R
CARIBOU        CLOUDY    62  51  67 N8        29.83R
$$

NHZ002-005-008-009-011-012-014-150400-
NEW HAMPSHIRE

CITY           SKY/WX    TMP DP  RH WIND       PRES   REMARKS
PORTSMOUTH*    CLOUDY    70  66  89 N5        29.81F
ROCHESTER*     CLOUDY    72  67  84 NW3       29.82F
NASHUA         CLOUDY    70  70 100 CALM      29.84F
MANCHESTER     CLOUDY    72  67  84 CALM      29.82F
CONCORD        CLOUDY    70  63  78 NW9       29.84S
LACONIA*       CLOUDY    65 N/A N/A E5        29.85F
BERLIN         CLOUDY    61  54  77 CALM      29.90R
WHITEFIELD*    CLOUDY    63  56  78 CALM      29.90S
JAFFREY*       CLOUDY    69  64  84 S5        29.88F
KEENE*         CLOUDY    66  65  96 CALM      29.86S
LEBANON*       MOCLDY    65  59  81 N8        29.89R
MT WASHINGTON* FOG       45  45 100 NW21G31     N/A  VSB 0
$$

VTZ005-007-008-150400-
VERMONT

CITY           SKY/WX    TMP DP  RH WIND       PRES   REMARKS
ST JOHNSBURY*    N/A     68  53  58 MISG      29.88R
MONTPELIER     CLOUDY    65  52  62 W7        29.96R
BURLINGTON     CLOUDY    69  51  52 N12       29.92R
$$

MAZ007-012-024-CTZ003-RIZ002-NYZ038-NYZ072-150400-
SOUTHERN NEW ENGLAND AND NY

CITY           SKY/WX    TMP DP  RH WIND       PRES   REMARKS
BOSTON         CLOUDY    69  65  86 SW12G23   29.82F
WORCESTER      RAIN      69  67  93 SW13      29.88F FOG
NANTUCKET      RAIN      63  63 100 S7          N/A  FOG
PROVIDENCE     CLOUDY    68  66  93 S8        29.87S
HARTFORD       CLOUDY    67  61  81 NE10      29.87R
ALBANY         PTCLDY    69  54  58 N6        29.88R
NEW YORK CITY  MOCLDY    68  61  78 NW7       29.87R
$$

ANZ081-ANZ082-ANZ150-NHZ014-MEZ023>029-150400-
COASTAL MARINE OBSERVATIONS

STATION/POSITION TIME  TEMP    WIND        PRES    WAVE
                       AIR SEA DIR/SP/G            HT/PER
                 (UTC) (F)     (DEG/KT/KT) (MB)    (FT/S)
MOUNT DESERT ROC 0300   58     170/ 14/ 15 1009.8F
MATINICUS ROCK*  0200   60     280/ 10/ 13 1010.4R
ISLE OF SHOALS*  0200   68     220/  9/ 10 1009.2R
JEFFREYS LEDGE*  0226      61                N/A     3/ 5
GEORGES BANK BUO 0250   60 56  170/  6/  6 1013.9F   2/ 8
$$

.............KEY..............
   WCI - WIND CHILL
   TC  - TEMPERATURE IN CELSIUS
   VSB - VISIBILITY IN MILES
   HX  - HEAT INDEX
   FAIR- INDICATES FEW OR NO CLOUDS BELOW 12,000 FT, WITH NO
         SIGNIFICANT WEATHER AND/OR OBSTRUCTIONS TO VISIBILITY.